Amsterdam, Netherlands

9:39 PM CET on December 06, 2019 (GMT +0100)
Schiphol

Weather History for EHAM - October, 2019

Change the Weather History Date:

Tuesday, October 1, 2019

  Actual Average Record
Temperature  
Mean Temperature 58 °F -  
Max Temperature 66 °F 56 °F 77 °F (2011)
Min Temperature 51 °F 45 °F 39 °F (2013)
Degree Days  
Heating Degree Days 6    
Growing Degree Days 8 (Base 50)    
Moisture  
Dew Point 57 °F    
Average Humidity 88    
Maximum Humidity 100    
Minimum Humidity 71    
Precipitation  
Precipitation 0.83 in - - ()
Sea Level Pressure  
Sea Level Pressure 29.51 in    
Wind  
Wind Speed 13 mph ()    
Max Wind Speed 18 mph    
Max Gust Speed 28 mph    
Visibility 6.8 miles    
Events Rain    
Averages and records for this station are not official NWS values.
T = Trace of Precipitation, MM = Missing Value Source: Averaged Metar Reports

Daily Weather History Graph

Daily Weather History Graph

Search for Another Location

Airport or City:

Astronomy

Oct. 01, 2019 Rise Set
Actual Time 7:41 AM CEST 7:19 PM CEST
Civil Twilight 7:07 AM CEST 7:52 PM CEST
Nautical Twilight 6:27 AM CEST 8:32 PM CEST
Astronomical Twilight 5:47 AM CEST 9:12 PM CEST
Moon 10:57 AM CEST (10/1) 8:59 PM CEST (10/1)
Length of Visible Light 12h 45m
Length of Day
11h 37m
Waxing Crescent, 10% of the Moon is Illuminated
Oct 1
Waxing Crescent
Oct 5
First Quarter
Oct 13
Full
Oct 21
Last Quarter
Oct 28
New

Hourly Weather History & Observations

Time (CEST) Temp. Dew Point Humidity Pressure Visibility Wind Dir Wind Speed Gust Speed Precip Events Conditions
12:00 AM 57 °F 55 °F 91% 29.73 in 9 mi South 11.2 mph - - Rain Light Rain
12:25 AM 57.2 °F 55.4 °F 94% 29.71 in 6.2 mi South 10.4 mph - N/A Rain Light Rain
12:55 AM 57.2 °F 55.4 °F 94% 29.68 in 4.3 mi South 11.5 mph - N/A Rain Drizzle
1:00 AM 57 °F 55 °F 92% 29.69 in 7 mi South 13.4 mph - - Rain Light Rain
1:25 AM 57.2 °F 55.4 °F 94% 29.65 in 6.2 mi South 13.8 mph - N/A Rain Light Rain
1:55 AM 57.2 °F 55.4 °F 94% 29.62 in 6.2 mi South 12.7 mph - N/A Rain Light Rain
2:00 AM 57 °F 55 °F 92% 29.64 in 7 mi South 13.4 mph - - Rain Light Rain
2:25 AM 57.2 °F 55.4 °F 94% 29.59 in 3.7 mi South 13.8 mph - N/A Rain Rain
2:55 AM 57.2 °F 55.4 °F 94% 29.59 in 3.1 mi South 15.0 mph - N/A Rain Rain
3:00 AM 57 °F 56 °F 93% 29.60 in 4 mi South 15.7 mph - - Rain Rain
3:25 AM 57.2 °F 55.4 °F 94% 29.56 in 3.7 mi South 15.0 mph - N/A Rain Rain
3:55 AM 57.2 °F 57.2 °F 100% 29.53 in 3.1 mi South 17.3 mph - N/A Rain Rain
4:00 AM 58 °F 56 °F 93% 29.55 in 4 mi SSW 17.9 mph - - Rain Rain
4:25 AM 59.0 °F 57.2 °F 94% 29.53 in 3.7 mi SSW 17.3 mph - N/A Rain Light Rain
4:55 AM 59.0 °F 57.2 °F 94% 29.50 in 4.3 mi SSW 16.1 mph - N/A Rain Light Rain
5:00 AM 59 °F 58 °F 93% 29.52 in 4 mi SSW 17.9 mph - - Rain Heavy Rain
5:25 AM 59.0 °F 59.0 °F 100% 29.50 in 6.2 mi SW 18.4 mph - N/A   Mostly Cloudy
5:55 AM 60.8 °F 59.0 °F 94% 29.47 in 6.2 mi SW 16.1 mph - N/A   Mostly Cloudy
6:00 AM 60 °F 59 °F 94% 29.49 in 12 mi SW 13.4 mph - - Rain Rain
6:25 AM 60.8 °F 59.0 °F 94% 29.47 in 6.2 mi SW 17.3 mph - N/A   Mostly Cloudy
6:55 AM 62.6 °F 59.0 °F 88% 29.47 in 6.2 mi SW 18.4 mph - N/A Rain Light Rain
7:00 AM 62 °F 59 °F 88% 29.48 in 12 mi SW 17.9 mph - -   Partly Cloudy
7:25 AM 62.6 °F 59.0 °F 88% 29.47 in 6.2 mi SW 17.3 mph - N/A   Scattered Clouds
7:55 AM 62.6 °F 59.0 °F 88% 29.47 in 6.2 mi WSW 18.4 mph - N/A   Scattered Clouds
8:00 AM 62 °F 59 °F 88% 29.48 in 9 mi WSW 17.9 mph - - Rain Rain
8:25 AM 62.6 °F 59.0 °F 88% 29.47 in 6.2 mi WSW 15.0 mph - N/A   Scattered Clouds
8:55 AM 62.6 °F 59.0 °F 88% 29.47 in 6.2 mi WSW 16.1 mph - N/A   Partly Cloudy
9:00 AM 62 °F 59 °F 85% 29.49 in 11 mi WSW 15.7 mph - -   Overcast
9:25 AM 62.6 °F 59.0 °F 88% 29.47 in 6.2 mi WSW 13.8 mph - N/A   Partly Cloudy
9:55 AM 62.6 °F 59.0 °F 88% 29.47 in 6.2 mi WSW 13.8 mph - N/A   Partly Cloudy
10:00 AM 63 °F 58 °F 80% 29.49 in 11 mi WSW 13.4 mph - -   Partly Cloudy
10:25 AM 62.6 °F 59.0 °F 88% 29.47 in 6.2 mi WSW 13.8 mph - N/A   Partly Cloudy
10:55 AM 62.6 °F 59.0 °F 88% 29.47 in 6.2 mi WSW 15.0 mph - N/A   Scattered Clouds
11:00 AM 64 °F 59 °F 78% 29.50 in 12 mi WSW 13.4 mph - -   Partly Cloudy
11:25 AM 64.4 °F 59.0 °F 83% 29.47 in 6.2 mi WSW 15.0 mph - N/A   Partly Cloudy
11:55 AM 62.6 °F 59.0 °F 88% 29.47 in 6.2 mi WSW 13.8 mph - N/A   Partly Cloudy
12:00 PM 64 °F 59 °F 79% 29.50 in 10 mi WSW 15.7 mph - - Rain Light Rain Showers
12:25 PM 62.6 °F 59.0 °F 88% 29.47 in 6.2 mi WSW 15.0 mph - N/A Rain Light Rain Showers
12:55 PM 64.4 °F 59.0 °F 83% 29.47 in 6.2 mi WSW 16.1 mph - N/A   Partly Cloudy
1:25 PM 64.4 °F 57.2 °F 77% 29.47 in 6.2 mi WSW 17.3 mph - N/A   Partly Cloudy
1:55 PM 64.4 °F 57.2 °F 77% 29.47 in 6.2 mi WSW 15.0 mph - N/A   Scattered Clouds
2:00 PM 64 °F 58 °F 77% 29.50 in 9 mi WSW 15.7 mph - - Rain Light Rain Showers
2:25 PM 64.4 °F 59.0 °F 83% 29.47 in 6.2 mi WSW 17.3 mph - N/A   Scattered Clouds
2:55 PM 66.2 °F 59.0 °F 78% 29.47 in 6.2 mi WSW 18.4 mph - N/A   Scattered Clouds
3:25 PM 64.4 °F 57.2 °F 77% 29.47 in 6.2 mi WSW 18.4 mph - N/A   Scattered Clouds
3:55 PM 64.4 °F 57.2 °F 77% 29.47 in 6.2 mi WSW 16.1 mph - N/A   Partly Cloudy
4:00 PM 64 °F 57 °F 71% 29.48 in 14 mi WSW 15.7 mph - -   Overcast
4:25 PM 66.2 °F 57.2 °F 73% 29.47 in 6.2 mi SW 18.4 mph - N/A   Partly Cloudy
4:55 PM 64.4 °F 57.2 °F 77% 29.47 in 6.2 mi WSW 18.4 mph - N/A   Partly Cloudy
5:00 PM 64 °F 58 °F 73% 29.48 in 17 mi WSW 15.7 mph - -   Partly Cloudy
5:25 PM 62.6 °F 55.4 °F 77% 29.47 in 6.2 mi SW 13.8 mph - N/A   Scattered Clouds
5:55 PM 62.6 °F 57.2 °F 82% 29.47 in 6.2 mi WSW 11.5 mph - N/A Rain Light Rain Showers
6:25 PM 60.8 °F 57.2 °F 88% 29.47 in 6.2 mi Variable 3.5 mph - N/A   Scattered Clouds
6:55 PM 59.0 °F 57.2 °F 94% 29.47 in 1.9 mi NNE 3.5 mph - N/A Rain Heavy Rain Showers
7:00 PM 59 °F 57 °F 91% 29.47 in 4 mi North 6.7 mph - - Rain Heavy Rain Showers
7:25 PM 57.2 °F 55.4 °F 94% 29.47 in 3.7 mi NE 11.5 mph - N/A Rain Light Rain Showers
7:55 PM 57.2 °F 55.4 °F 94% 29.47 in 4.3 mi NE 10.4 mph - N/A Rain Light Rain Showers
8:00 PM 57 °F 56 °F 94% 29.50 in 9 mi NE 11.2 mph - - Rain Rain
8:25 PM 55.4 °F 53.6 °F 94% 29.47 in 5.0 mi NNE 12.7 mph - N/A Rain Light Rain Showers
8:55 PM 53.6 °F 53.6 °F 100% 29.50 in 6.2 mi NNE 16.1 mph 27.6 mph N/A Rain Light Rain Showers
9:00 PM 54 °F 52 °F 92% 29.51 in 19 mi NNE 17.9 mph - - Rain Light Rain
9:25 PM 53.6 °F 51.8 °F 94% 29.50 in 4.3 mi NNE 17.3 mph - N/A Rain Light Rain Showers
9:55 PM 53.6 °F 51.8 °F 94% 29.50 in 6.2 mi NE 15.0 mph - N/A Rain Light Rain Showers
10:25 PM 53.6 °F 50.0 °F 88% 29.53 in 6.2 mi NNE 16.1 mph - N/A Rain Light Rain Showers
10:55 PM 51.8 °F 50.0 °F 94% 29.56 in 6.2 mi NNE 13.8 mph - N/A Rain Light Rain Showers
11:00 PM 52 °F 48 °F 83% 29.57 in 22 mi NNE 15.7 mph - - Rain Light Rain
11:25 PM 51.8 °F 48.2 °F 88% 29.56 in 6.2 mi NNE 15.0 mph - N/A   Mostly Cloudy
11:55 PM 51.8 °F 48.2 °F 88% 29.56 in 6.2 mi NNE 16.1 mph - N/A Rain Light Rain